Farrell Flat Airport

Jump to: basic info | weather | frequencies | runways | comments

Related pages: nearby airports | nearby navaids | notams | map

Basic information (top)

Codes: YFFT
Location: lon -33.833302, lat 138.766998
Status: small_airport

Weather (top)

Current conditions for Adelaide International Airport 68nm (125km) S (rec'd 2014/11/23 04:00Z):

YPAD 230400Z 27012KT CAVOK 22/11 Q1012 NOSIG

Airport forecast for Adelaide International Airport 68nm (125km) S (rec'd 2014/11/22 00:33Z):

TAF YPAD 222308Z 2300/2406 06008KT CAVOK 
     FM230300 21012KT CAVOK 
     FM231000 15008KT CAVOK 
     FM231600 20015KT 9999 -SHRA SCT020 
     FM240100 23018KT 9999 -SHRA SCT030 PROB30 INTER 2312/2323 VRB18G35KT 5000 TSRA SCT080CB

Frequencies (top)

Verify before use: may be inaccurate or out of date.

CTAF: 122.4 MHz (CTAF)
MISC: 114.2 MHz (MISC)
MISC: 119.8 MHz (MISC)
MISC: 121.3 MHz (MISC)

Runways (top)

03/21: 1,443 ft (440 m) — grass — not lighted

14/32: 2,486 ft (758 m) — grass — not lighted

Latest comments (top)

No comments yet for Farrell Flat Airport

More... (top)

See also NOTAMs and nearby airports and navaids, or visit the Farrell Flat Airport page at the main OurAirports website..